Location: Dumpton Point
(51.3500°N, 1.4433°E)
Time: 21:49:15
(UTC+00:00)

Vanguard 1 - Pass Details

Date: 02 October 2022
Orbit: 650 x 3831 km, 34.2° (Epoch: 03 December)

Event Time Altitude Azimuth Distance (km) Brightness Sun altitude
Rises 13:18:19 0° 221° (SW) 7,420 15.6 31.4°
Reaches altitude 10° 13:25:04 10° 211° (SSW) 5,928 15.7 30.8°
Maximum altitude 13:37:07 25° 165° (SSE) 3,688 13.9 29.9°
Drops below altitude 10° 13:45:10 10° 116° (ESE) 3,847 13.1 29.1°
Sets 13:48:22 0° 102° (ESE) 4,438 13.2 28.9°
